CZ-4 DEB, 26351

Orbit data source: Space-Track

CZ-4 DEB, 26351 is space debris in SSO originally from a launch on Thu, 14 Oct 1999 UTC launched from the Taiyaun Space Center, China (TSC). Debris objects in space refer to the collection of defunct objects orbiting the Earth. Examples of debris include non-operational satellites, rocket bodies, and fragments generated from explosions, collisions, or faulty payload assembly.

Loading next visibility...
Identifier
26351, 1999-057JL
Orbit
SSO
Country
Flag of CNCN / PRC
Related business
Manufacturer
Unknown
Mission
Spacecraft
Bus & Motor
Unknown
Mass
Unknown
Launch date (UTC)
1999-10-14 (26 years ago)
Launch vehicle
Unknown
Launch site
Taiyaun Space Center, China (TSC)
Object type
Payload
Rocket body
Debris
Shape & HBR
Unknown shape, 0.1 m
Radar Cross Section
Small (<0.1 m²)

Expand to show TLE details & history
Last TLE update: 1 day ago

TLE from 1 day ago
0 CZ-4 DEB
1 26351U 99057JL  25304.01087924  .00002063  00000-0  50390-3 0  9993
2 26351  98.6368 319.0022 0056231   6.6433 353.5494 14.52795203351218
Epoch: 2025-10-31T00:15Z
TLE epoch observation values (Epoch: 2025-10-31T00:15:39.966Z)
Latitude
-0.00009°
Longitude
-84.47576°
Altitude
679.849 km
Speed
7.538 km/s
True Right ascension
21h 16m 00s
True Declination
0° 00' 00"
Sunlit
Object was in daylight at epoch
Visualization orbit readout
Latitude
Unknown
Longitude
Unknown
Altitude
Unknown
Speed
Unknown
Apparent Right ascension
Unknown
Apparent Declination
Unknown
Sunlit
N/A
Visualization observer readout
Local Sidereal Time
23:44:54
Azimuth
Unknown
Elevation
Unknown
Doppler factor
Unknown
Orbital elements
Apogee altitude
753.523 km
Perigee altitude
673.767 km
Semi-major axis
7,091.782 km
Eccentricity
0.00562
Inclination
98.6368°
RAAN
319.0022°
Arg. of periapsis
6.6433°
True anomaly
353.4765°
Mean anomaly
353.5494°
Eccentric anomaly
353.513°
Mean motion
3.63421 °/min
Orbital period
99.06 mins
BSTAR
0.0005039
Loading maneuver chart data...
Computing Atmospheric mass density...
Loading historical data...
Loading historical data...
Loading historical data...
Loading historical data...
Loading historical data...
Loading historical data...
Loading historical data...

Documentation

Showing up to 5 results
|